Tracking 19832 objects as of 25-Aug-2019
HD Live streaming from Space Station
objects crossing your sky now

COSMOS 2251 DEB

Track COSMOS 2251 DEB now!
10-day predictions


NORAD ID: 36058
Int'l Code: 1993-036AXV
Perigee: 700.1 km
Apogee: 778.4 km
Inclination: 74.0 °
Period: 99.4 minutes
Semi major axis: 7110 km
RCS: 0.0068 m2 (small)
Launch date: June 16, 1993
Source: Commonwealth of Independent States (former USSR) (CIS)
Launch site: PLESETSK MISSILE AND SPACE COMPLEX (PKMTR)

Note: This is SATELLITE DEBRIS
aabbcc
Your satellite tracking list
Your tracking list is empty




NASA's NSSDC Master Catalog

Two Line Element Set (TLE):
1 36058U 93036AXV 19236.82756150 +.00000159 +00000-0 +49464-4 0  9994
2 36058 074.0262 045.8027 0055015 025.3652 335.0189 14.48019620327242
Source of the keplerian elements: AFSPC